Flag for Germany Weather past 2 weeks in Stolberg (Rheinland), North Rhine-Westphalia, Germany

Now
55 °F

Passing clouds.


Feels Like: 55 °F
Forecast: 54 / 67 °F
Wind: 3 mph from Southwest

Location: Geilenkirchen Airport

Current Time: Aug 28, 2015 at 12:35:18 AM

Latest Report: Aug 27, 2015 at 11:50 PM


Visibility: N/A

Pressure: 29.92 "Hg

Humidity: 94%

Dew point: 54 °F

Location of Stolberg (Rheinland)Location

Historic Weather in Stolberg (Rheinland) — Graph

°F

Stolberg (Rheinland) temperature yesterday

Maximum temperature yesterday: 72 °F (at 12:50 AM)
Minimum temperature yesterday: 55 °F (at 6:50 PM)
Average temperature yesterday: 63 °F

Past Weeks' High & Low Weather Summary

 TemperatureHumidityPressure
High90 °F (Aug 13, 4:50 PM)100% (Aug 13, 5:50 AM)30.24 "Hg (Aug 13, 5:50 AM)
Low50 °F (Aug 20, 6:50 AM)37% (Aug 20, 4:50 PM)29.53 "Hg (Aug 24, 2:50 PM)
Average65 °F74%29.95 "Hg
* Reported Aug 12 10:50 PM — Aug 27 10:50 PM, Stolberg (Rheinland), Weather by CustomWeather, © 2015

Note: Actual official high and low records may vary slightly from our data, if they occured in-between our weather recording intervals... More about our weather records

Advertising

Stolberg (Rheinland) weather history for previous 24 hours

 ConditionsComfort  
Time TempWeatherWind HumidityBarometerVisibility
10:50 PM
Thu, Aug 27
55 °FRain. Overcast.3 mph94%29.92 "HgN/A
9:50 PM55 °FLight rain. Overcast.3 mph94%29.89 "HgN/A
8:50 PM55 °FLight rain. Mostly cloudy.2 mph94%29.89 "HgN/A
6:50 PM55 °FDrizzle. Mostly cloudy.3 mph94%29.86 "Hg6 mi
4:50 PM57 °FDrizzle. Fog.7 mph88%29.89 "Hg3 mi
3:50 PM57 °FRain. More clouds than sun.5 mph94%29.89 "Hg6 mi
2:50 PM59 °FLight rain. More clouds than sun.10 mph82%29.89 "HgN/A
1:50 PM59 °FRain. More clouds than sun.7 mph88%29.89 "HgN/A
12:50 PM63 °FLight rain. Cloudy.10 mph83%29.89 "HgN/A
11:50 AM63 °FLight rain. Broken clouds.12 mph83%29.86 "HgN/A
10:50 AM64 °FLight rain. Partly sunny.10 mph78%29.86 "HgN/A
9:50 AM64 °FLight rain. Mostly cloudy.9 mph83%29.86 "HgN/A
8:50 AM64 °FLight rain. Partly sunny.8 mph83%29.83 "HgN/A
7:50 AM63 °FLight rain. More clouds than sun.12 mph88%29.83 "HgN/A
6:50 AM66 °FLight rain. Mostly cloudy.9 mph83%29.83 "HgN/A
5:50 AM68 °FClear.10 mph78%29.80 "Hg10 mi
4:50 AM68 °FClear.9 mph78%29.80 "Hg10 mi
3:50 AM70 °FRain. Mostly cloudy.7 mph73%29.80 "Hg5 mi
2:50 AM70 °FClear.5 mph69%29.77 "Hg10 mi
1:50 AM72 °FClear.6 mph65%29.80 "Hg10 mi
12:50 AM72 °FClear.8 mph61%29.80 "Hg10 mi
Weather by CustomWeather, © 2015

See weather overviewHow to use our weather pages